Location: Rounton
(54.4000°N, 1.3500°W)
Time: 02:40:18
(UTC+00:00)

Envisat - Pass Details

Date: 29 October 2021
Orbit: 764 x 766 km, 98.2° (Epoch: 28 November)

Event Time Altitude Azimuth Distance (km) Brightness Sun altitude
Rises 18:31:07 0° 209° (SSW) 3,225 6.9 -8.5°
Reaches altitude 10° 18:34:02 10° 226° (SW) 2,304 6.5 -8.9°
Maximum altitude 18:37:41 20° 272° (W) 1,738 6.0 -9.5°
Drops below altitude 10° 18:41:22 10° 319° (NW) 2,316 5.9 -10.0°
Sets 18:44:19 0° 336° (NNW) 3,247 6.5 -10.4°
